This is the latest recevied weather packets stored in our database for station/object N9CQS-13. If no packets are shown the sender has not sent any weather packets the latest 10 day(s).
| Time | Temp. | Humidity | Pressure | Rain* | Wind** | Luminosity | Snow |
|---|---|---|---|---|---|---|---|
| 1777157492 | 22.22° C | 49% | 1012.2 hPa | 0 mm | - | - | - |
| 1777156892 | 22.78° C | 49% | 1012.2 hPa | 0 mm | - | - | - |
| 1777155692 | 22.22° C | 48% | 1012.2 hPa | 0 mm | - | - | - |
| 1777155092 | 22.22° C | 50% | 1012.1 hPa | 0 mm | - | - | - |
| 1777154493 | 22.22° C | 48% | 1012.1 hPa | 0 mm | - | - | - |
| 1777153892 | 22.22° C | 50% | 1012.1 hPa | 0 mm | - | - | - |
| 1777153292 | 22.78° C | 48% | 1012.2 hPa | 0 mm | - | - | - |
| 1777152692 | 22.78° C | 48% | 1012.3 hPa | 0 mm | - | - | - |
| 1777152092 | 22.78° C | 49% | 1012.3 hPa | 0 mm | - | - | - |
| 1777151492 | 23.33° C | 50% | 1012.3 hPa | 0 mm | - | - | - |
| 1777150892 | 22.78° C | 48% | 1012.3 hPa | 0 mm | - | - | - |
| 1777150292 | 22.78° C | 52% | 1012.4 hPa | 0 mm | - | - | - |
| 1777149692 | 22.22° C | 50% | 1012.5 hPa | 0 mm | - | - | - |
| 1777149092 | 22.22° C | 52% | 1012.5 hPa | 0 mm | - | - | - |
| 1777148492 | 22.78° C | 53% | 1012.7 hPa | 0 mm | - | - | - |
| 1777147892 | 21.67° C | 54% | 1012.8 hPa | 0 mm | - | - | - |
| 1777147292 | 21.67° C | 54% | 1012.9 hPa | 0 mm | - | - | - |
| 1777146692 | 21.67° C | 54% | 1013.1 hPa | 0 mm | - | - | - |
| 1777146092 | 21.67° C | 54% | 1013.2 hPa | 0 mm | - | - | - |
| 1777145492 | 21.11° C | 54% | 1013.3 hPa | 0 mm | - | - | - |
| 1777144892 | 21.11° C | 55% | 1013.3 hPa | 0 mm | - | - | - |
| 1777144292 | 21.11° C | 54% | 1013.4 hPa | 0 mm | - | - | - |
| 1777143692 | 20.56° C | 56% | 1013.5 hPa | 0 mm | - | - | - |
| 1777143092 | 20° C | 56% | 1013.6 hPa | 0 mm | - | - | - |
| 1777142491 | 20° C | 57% | 1013.8 hPa | 0 mm | - | - | - |
* Rain latest hour (hover to see other rain measurements)
** Current wind speed in m/s (hover to see current wind gust speed)